Location: Bezawada
(16.5136°N, 80.6297°E)
Time: 08:46:51
(UTC+00:00)

Centaur AC-112 - Pass Details

Date: 27 February 2020
Orbit: 294 x 20501 km, 26.7° (Epoch: 31 March)

Event Time Altitude Azimuth Distance (km) Brightness Sun altitude
Rises 14:02:44 0° 293° (WNW) 2,296 6.6 -19.7°
Reaches altitude 10° 14:04:01 10° 294° (WNW) 1,683 5.7 -20.0°
Maximum altitude 14:07:15 85° 22° (NNE) 861 3.1 -20.7°
Enters shadow 14:11:36 29° 110° (ESE) 2,530 5.1 -21.8°
